#timestamp,LO_Frequency,Hit,StdDev 
1704463215.7,286047002.6,N
1704463235.6,286047000.6,N
1704463255.4,286047000.9,N
1704463275.3,286046999.9,N
1704463295.1,286047000.9,N
1704463296.0,286047000.9,N
1704463315.8,286046998.1,N
1704463335.7,286046999.3,N
1704463355.5,286046999.4,N
1704463375.3,286046999.0,N
1704463395.2,286046996.9,N
1704463415.0,286046998.2,N
1704463415.9,286046998.2,N
1704463435.8,286046998.6,N
1704463455.6,286046998.8,N
1704463475.4,286047001.0,N
1704463495.3,286047000.7,N
1704463515.1,286047000.4,N
1704463535.9,286047000.0,N
1704463555.7,286047000.7,N
1704463575.5,286047001.1,N
1704463595.4,286047000.5,N
1704463615.2,286047000.2,N
1704463635.0,286046999.7,N
1704463635.9,286046999.7,N
1704463655.8,286046999.9,N
1704463675.6,286047000.5,N
1704463695.5,286047000.9,N
1704463715.3,286047000.1,N
1704463735.1,286047000.1,N
1704463755.9,286046998.1,N
1704463775.7,286046998.3,N
1704463795.5,286047000.6,N
1704463815.4,286047000.1,N
1704463835.2,286047002.6,N
1704463855.1,286047002.1,N
1704463856.0,286047002.1,N
1704463875.8,286047002.8,N
1704463895.6,286047002.7,N
1704463915.5,286047001.9,N
1704463935.3,286046999.8,N
1704463955.2,286046999.8,N
1704463975.9,286047002.2,N
1704463995.7,286047001.9,N
1704464015.6,286046999.9,N
1704464035.4,286047000.1,N
1704464055.3,286047000.0,N
1704464075.1,286047000.1,N
1704464076.0,286047000.1,N
1704464095.8,286047000.5,N
1704464115.7,286047000.0,N
1704464135.5,286047000.3,N
1704464155.4,286047000.7,N
1704464175.2,286046998.5,N
1704464195.0,286046998.3,N
1704464195.9,286046998.3,N
1704464215.8,286046998.7,N
1704464235.6,286046999.1,N
1704464255.4,286046998.4,N
1704464275.3,286047000.5,N
1704464295.1,286047000.1,N
1704464315.9,286047000.5,N
1704464335.7,286047002.4,N
1704464355.5,286047000.0,N
1704464375.4,286047000.8,N
1704464395.2,286046998.2,N
1704464415.1,286046998.5,N
1704464416.0,286046998.5,N
1704464435.8,286046999.0,N
1704464455.6,286046998.8,N
1704464475.5,286046996.8,N
1704464495.3,286046997.1,N
1704464515.1,286046997.2,N
1704464535.9,286046996.5,N
1704464555.7,286046999.3,N
1704464575.6,286046999.5,N
1704464595.4,286046998.3,N
1704464615.2,286047000.1,N
1704464635.1,286047000.0,N
1704464636.0,286047000.0,N
1704464655.8,286047001.1,N
1704464675.6,286046999.9,N
1704464695.5,286046998.5,N
1704464715.3,286047000.7,N
1704464735.2,286047001.1,N
1704464755.9,286046999.4,N
1704464775.7,286046998.2,N
1704464795.6,286046998.7,N
1704464815.4,286047000.0,N
1704464835.3,286047000.8,N
1704464855.1,286047001.0,N
1704464875.8,286047000.9,N
1704464895.7,286046998.5,N
1704464915.5,286047001.0,N
1704464935.3,286046998.3,N
1704464955.2,286046999.2,N
1704464975.0,286046999.2,N
1704464975.9,286046999.2,N
1704464995.8,286046998.7,N
1704465015.6,286047000.8,N
1704465035.4,286047000.0,N
1704465055.3,286046999.8,N
1704465075.1,286047002.3,N
1704465095.9,286047001.8,N
1704465115.7,286047003.9,Y
1704465135.5,286047001.3,P
1704465155.4,286047001.3,N
1704465175.2,286047002.1,P
1704465195.0,286047002.0,N
1704465195.9,286047002.0,N
1704465215.8,286047002.0,N
1704465235.6,286046999.7,N
1704465255.5,286047002.8,Y
1704465275.3,286047000.4,P
1704465295.1,286047001.1,N
1704465315.9,286047000.8,N
1704465335.7,286046998.1,Y
1704465355.5,286047000.8,P
1704465375.4,286046998.1,P
1704465395.2,286047000.9,N
1704465415.1,286046999.1,N
1704465416.0,286046999.1,N
1704465435.8,286046996.9,N
1704465455.6,286046995.3,Y
1704465475.5,286046996.5,P
1704465495.3,286046999.3,N
1704465515.2,286046998.1,N
1704465535.9,286046998.2,N
1704465555.7,286046998.1,N
1704465575.6,286046999.9,N
1704465595.4,286047000.6,N
1704465615.2,286047001.0,N
1704465635.1,286046998.6,N
1704465636.0,286046998.6,N
1704465655.8,286046998.2,N
1704465675.7,286046998.8,N
1704465695.5,286046998.1,N
1704465715.3,286046998.9,N
1704465735.2,286046999.5,N
1704465755.0,286047000.7,N
1704465755.9,286047000.7,N
1704465775.7,286046998.1,N
1704465795.6,286046998.5,N
1704465815.4,286047001.1,N
1704465835.3,286046998.6,N
1704465855.1,286046999.6,N
1704465856.0,286046999.6,N
1704465875.8,286046996.9,N
1704465895.7,286046998.2,N
1704465915.5,286046998.1,N
1704465935.3,286046998.5,N
1704465955.2,286047000.1,N
1704465975.0,286047000.0,N
1704465975.9,286047000.0,N
1704465995.8,286047000.0,N
1704466015.6,286046999.8,N
1704466035.4,286046999.7,N
1704466055.3,286046998.3,N
1704466075.1,286047001.1,N
1704466095.9,286046998.9,N
1704466115.7,286046998.1,N
1704466135.5,286046998.8,N
1704466155.4,286046998.7,N
1704466175.2,286046998.3,N
1704466195.0,286046999.2,N
1704466195.9,286046999.2,N
1704466215.8,286046999.6,N
1704466235.6,286046997.1,N
1704466255.5,286046997.1,N
1704466275.3,286046997.8,N
1704466295.1,286046995.3,Y
1704466315.9,286046996.8,P
1704466335.7,286046997.3,N
1704466355.5,286046997.1,P
1704466375.4,286046998.7,N
1704466395.2,286046998.4,N
1704466415.1,286046996.5,Y
1704466416.0,286046996.5,P
1704466435.8,286047000.0,N
1704466455.6,286047002.3,N
1704466475.5,286046999.8,N
1704466495.3,286047001.3,N
1704466515.2,286047001.4,N
1704466535.9,286047004.2,N
1704466555.7,286047003.7,N
1704466575.6,286047001.7,N
1704466595.4,286047001.8,N
1704466615.2,286047003.5,N
1704466635.1,286047005.4,N
1704466636.0,286047005.4,N
1704466655.8,286047004.6,N
1704466675.7,286047004.7,N
1704466695.5,286047003.0,N
1704466715.3,286047006.0,N
1704466735.2,286047005.2,N
1704466755.0,286047005.8,N
1704466755.9,286047005.8,N
1704466775.8,286047003.2,N
1704466795.6,286047002.9,N
